User: anonymous   Login
Location: Starry Hill Observatory
(46.8582°N, 122.3590°W)
Time: 21:02:28
(UTC-07:00)
Language:

Cosmos 1300 Rocket - Orbit

View from above orbital plane
View from above orbital plane
View from above satellite
View from above satellite

Ground track
Ground track

The orbit data is extracted from the following two-line orbital elements,

1 12786U 81082B   15210.51503531  .00000165  00000-0  16736-4 0  9994
2 12786 082.4877 256.6948 0017914 013.1150 347.0527 14.84495300832633
Epoch (UTC): 29 July 2015 12:21:39
Eccentricity: 0.0017914
inclination: 82.4877°
perigee height: 602 km
apogee height: 628 km
right ascension of ascending node: 256.6948°
argument of perigee: 13.1150°
revolutions per day: 14.84495300
mean anomaly at epoch: 347.0527°
orbit number at epoch: 83263

The dashed part of the orbit path shows where the satellite is in the earth's shadow,  

DLR